Location: Unspecified
(0.0000°N, 0.0000°E)
Time: 03:38:48
(UTC+00:00)

deb Explorer IX - Pass Details

Date: 26 May 2024
Orbit: 510 x 885 km, 38.7° (Epoch: 18 June)

Event Time Altitude Azimuth Distance (km) Brightness Sun altitude
Exits shadow 04:37:09 40° 212° (SSW) 781 ? -18.6°
Drops below altitude 10° 04:40:52 10° 149° (SSE) 1,824 ? -17.7°
Sets 04:43:19 0° 142° (SE) 2,772 ? -17.2°
